OPS 4682 DEB, 51506

Orbit data source: Space-Track

OPS 4682 DEB, 51506 is space debris in LEO originally from a launch on Sat, 03 Apr 1965 UTC launched from the Air Force Western Test Range (AFWTR). Debris objects in space refer to the collection of defunct objects orbiting the Earth. Examples of debris include non-operational satellites, rocket bodies, and fragments generated from explosions, collisions, or faulty payload assembly.

Loading next visibility...
Identifier
51506, 1965-027GS
Orbit
LEO
Country
Flag of USUS
Related business
Manufacturer
Unknown
Mission
Spacecraft
Bus & Motor
Unknown
Mass
Unknown
Launch date (UTC)
1965-04-03 (61 years ago)
Launch vehicle
Unknown
Launch site
Air Force Western Test Range (AFWTR)
Object type
Payload
Rocket body
Debris
Shape & HBR
Unknown shape, 1.1 m
Radar Cross Section
Medium (>0.1 m² and <1 m²)

Expand to show TLE details & history
Last TLE update: 4 days ago

TLE from 4 days ago
0 OPS 4682 DEB
1 51506U 65027GS  26233.66734808 -.00000082  00000-0 -30710-3 0  9991
2 51506  90.2487  14.7214 0038151 271.0536 101.4317 12.97333416705547
Epoch: 2026-08-21T16:00Z
TLE epoch observation values (Epoch: 2026-08-21T16:00:58.874Z)
Latitude
12.8758°
Longitude
164.43071°
Altitude
1,280.58 km
Speed
7.214 km/s
True Right ascension
00h 58m 39s
True Declination
12° 48' 23"
Sunlit
Object was in full shadow at epoch
Visualization orbit readout
Latitude
Unknown
Longitude
Unknown
Altitude
Unknown
Speed
Unknown
Apparent Right ascension
Unknown
Apparent Declination
Unknown
Sunlit
N/A
Visualization observer readout
Local Sidereal Time
19:25:51
Azimuth
Unknown
Elevation
Unknown
Doppler factor
Unknown
Orbital elements
Apogee altitude
1,298.86 km
Perigee altitude
1,240.506 km
Semi-major axis
7,647.82 km
Eccentricity
0.00382
Inclination
90.2487°
RAAN
14.7214°
Arg. of periapsis
271.0536°
True anomaly
101.8598°
Mean anomaly
101.4317°
Eccentric anomaly
101.64579°
Mean motion
3.24516 °/min
Orbital period
110.93 mins
BSTAR
-0.0003071
Loading maneuver chart data...
Computing Atmospheric mass density...
Loading historical data...
Loading historical data...
Loading historical data...
Loading historical data...
Loading historical data...
Loading historical data...
Loading historical data...

Documentation

Showing up to 5 results
|